Weather History for Dillon, MT

Change the Weather History Date:

Saturday, February 23, 2013

  Actual Average Record
Temperature  
Mean Temperature 26 °F 28 °F  
Max Temperature 33 °F 40 °F 58 °F (1990)
Min Temperature 18 °F 17 °F -15 °F (2003)
Degree Days  
Heating Degree Days 39    
Month to date heating degree days 818  
Since 1 July heating degree days 5218  
Cooling Degree Days 0    
Month to date cooling degree days 0  
Year to date cooling degree days 0  
Moisture  
Dew Point 19 °F    
Average Humidity 64    
Maximum Humidity 88    
Minimum Humidity 39    
Precipitation  
Precipitation 0.02 in 0.01 in 0.24 in (2007)
Month to date precipitation 0.08 0.18  
Year to date precipitation 0.26 0.46  
Snow  
Snow 0.00 in - - ()
Snow Depth 0.00 in    
Sea Level Pressure  
Sea Level Pressure 29.75 in    
Wind  
Wind Speed 8 mph (SSW)    
Max Wind Speed 28 mph    
Max Gust Speed 29 mph    
Visibility 5 miles    
Events Fog , Snow    
T = Trace of Precipitation, MM = Missing Value Source: NWS Daily Summary

Daily Weather History Graph

Daily Weather History Graph

Search for Another Location

Airport:

Trip Planner

Search our weather history database for the weather conditions in past years. The results will help you decide how hot, cold, wet, or windy it might be!

Date:

Astronomy

Feb. 23, 2013 Rise Set
Actual Time 7:18 AM MST 6:09 PM MST
Civil Twilight 6:48 AM MST 6:39 PM MST
Nautical Twilight 6:14 AM MST 7:13 PM MST
Astronomical Twilight 5:40 AM MST 7:47 PM MST
Moon 4:21 PM MST (2/23) 5:46 AM MST (2/23)
Length of Visible Light 11h 51m
Length of Day
10h 51m
Waxing Gibbous, 95% of the Moon is Illuminated
Feb 23
Waxing Gibbous
Feb 25
Full
Mar 4
Last Quarter
Mar 11
New
Mar 19
First Quarter

Hourly Weather History & Observations

Time (MST) Temp. Windchill Dew Point Humidity Pressure Visibility Wind Dir Wind Speed Gust Speed Precip Events Conditions
12:53 AM 30.0 °F 21.7 °F 18.0 °F 61% 29.69 in 10.0 mi SSW 9.2 mph - N/A   Clear
1:53 AM 28.9 °F 25.2 °F 18.0 °F 64% 29.67 in 10.0 mi WSW 3.5 mph - N/A   Mostly Cloudy
2:53 AM 30.0 °F - 18.0 °F 61% 29.64 in 10.0 mi Calm Calm - N/A   Overcast
3:53 AM 30.9 °F 19.8 °F 18.0 °F 59% 29.58 in 10.0 mi SE 16.1 mph 20.7 mph N/A   Overcast
5:53 AM 30.0 °F 19.1 °F 18.0 °F 61% 29.61 in 10.0 mi West 15.0 mph 20.7 mph N/A   Overcast
6:06 AM 26.6 °F 12.4 °F 24.8 °F 93% 29.58 in 1.5 mi West 21.9 mph 27.6 mph 0.00 in Snow Light Snow
6:09 AM 26.6 °F 13.4 °F 24.8 °F 93% 29.58 in 0.8 mi West 18.4 mph 26.5 mph 0.00 in Snow Light Snow
6:17 AM 26.6 °F 16.2 °F 24.8 °F 93% 29.59 in 0.5 mi West 11.5 mph - 0.00 in Fog , Snow Snow
6:24 AM 26.6 °F 17.5 °F 24.8 °F 93% 29.59 in 1.5 mi WSW 9.2 mph - 0.00 in Snow Light Snow
6:28 AM 26.6 °F 15.7 °F 24.8 °F 93% 29.59 in 3.0 mi SSW 12.7 mph - 0.00 in Snow Light Snow
6:53 AM 27.0 °F - 24.1 °F 89% 29.68 in 3.0 mi Calm Calm - 0.00 in Snow Light Snow
7:00 AM 26.6 °F 19.1 °F 23.0 °F 86% 29.62 in 2.5 mi Variable 6.9 mph - 0.00 in Snow Light Snow
7:12 AM 26.6 °F 18.2 °F 21.2 °F 80% 29.62 in 1.8 mi SSE 8.1 mph - 0.01 in Snow Light Snow
7:19 AM 26.6 °F 20.0 °F 21.2 °F 80% 29.62 in 2.5 mi South 5.8 mph - 0.01 in Snow Light Snow
7:28 AM 26.6 °F 18.2 °F 19.4 °F 74% 29.63 in 3.0 mi South 8.1 mph - 0.01 in Snow Light Snow
7:53 AM 26.1 °F 19.4 °F 19.9 °F 78% 29.71 in 10.0 mi SSE 5.8 mph - 0.01 in   Overcast
8:42 AM 24.8 °F 15.3 °F 19.4 °F 80% 29.66 in 1.0 mi SSE 9.2 mph - 0.00 in Snow Light Snow
8:53 AM 24.1 °F 17.0 °F 21.0 °F 88% 29.75 in 1.0 mi South 5.8 mph - 0.00 in Snow Light Snow
9:00 AM 24.8 °F 16.9 °F 21.2 °F 86% 29.67 in 2.0 mi South 6.9 mph - 0.00 in Snow Light Snow
9:12 AM 24.8 °F 16.9 °F 21.2 °F 86% 29.68 in 3.0 mi South 6.9 mph - 0.00 in Snow Light Snow
9:20 AM 24.8 °F 16.1 °F 21.2 °F 86% 29.69 in 3.0 mi South 8.1 mph - 0.00 in Snow Light Snow
9:53 AM 24.1 °F 14.4 °F 19.9 °F 84% 29.78 in 3.0 mi South 9.2 mph - 0.00 in Snow Light Snow
10:00 AM 24.8 °F 16.1 °F 19.4 °F 80% 29.70 in 1.8 mi South 8.1 mph - 0.00 in Snow Light Snow
10:08 AM 24.8 °F 16.1 °F 19.4 °F 80% 29.70 in 1.2 mi South 8.1 mph - 0.00 in Snow Light Snow
10:30 AM 24.8 °F 16.1 °F 21.2 °F 86% 29.70 in 0.8 mi SSE 8.1 mph - 0.00 in Snow Light Snow
10:46 AM 24.8 °F 16.9 °F 21.2 °F 86% 29.71 in 1.0 mi SSE 6.9 mph - 0.01 in Snow Light Snow
10:53 AM 25.0 °F 19.3 °F 21.0 °F 85% 29.81 in 0.8 mi SSE 4.6 mph - 0.01 in Snow Light Snow
11:09 AM 24.8 °F 16.1 °F 21.2 °F 86% 29.72 in 1.0 mi SSE 8.1 mph - 0.00 in Snow Light Snow
11:12 AM 24.8 °F 16.1 °F 21.2 °F 86% 29.72 in 2.0 mi South 8.1 mph - 0.00 in Snow Light Snow
11:21 AM 24.8 °F 14.6 °F 21.2 °F 86% 29.72 in 4.0 mi South 10.4 mph - 0.00 in   Overcast
11:28 AM 24.8 °F 15.3 °F 21.2 °F 86% 29.72 in 7.0 mi South 9.2 mph - 0.00 in   Overcast
11:53 AM 25.0 °F 14.2 °F 21.0 °F 85% 29.82 in 10.0 mi SSW 11.5 mph - 0.00 in   Overcast
12:53 PM 27.0 °F 20.5 °F 19.9 °F 75% 29.82 in 10.0 mi SSW 5.8 mph - N/A   Overcast
1:53 PM 28.0 °F 21.7 °F 18.0 °F 66% 29.83 in 10.0 mi South 5.8 mph - N/A   Mostly Cloudy
2:53 PM 30.0 °F 20.5 °F 9.0 °F 41% 29.84 in 10.0 mi NNW 11.5 mph 17.3 mph N/A   Mostly Cloudy
3:53 PM 30.0 °F 20.0 °F 8.1 °F 40% 29.85 in 10.0 mi NNW 12.7 mph - N/A   Scattered Clouds
4:53 PM 28.9 °F 17.7 °F 9.0 °F 43% 29.88 in 10.0 mi NW 15.0 mph 20.7 mph N/A   Overcast
5:53 PM 27.0 °F 17.3 °F 9.0 °F 47% 29.93 in 10.0 mi NW 10.4 mph - N/A   Mostly Cloudy
6:53 PM 26.1 °F 18.4 °F 10.9 °F 53% 29.99 in 10.0 mi North 6.9 mph - N/A   Overcast
8:53 PM 24.1 °F 12.0 °F 14.0 °F 65% 30.08 in 10.0 mi NNE 13.8 mph - N/A   Overcast
9:53 PM 23.0 °F 14.7 °F 14.0 °F 68% 30.11 in 10.0 mi NE 6.9 mph - N/A   Overcast
10:53 PM 19.9 °F 14.9 °F 12.0 °F 71% 30.14 in 10.0 mi West 3.5 mph - N/A   Overcast
11:53 PM 19.0 °F 12.3 °F 10.9 °F 71% 30.17 in 10.0 mi SSW 4.6 mph - N/A   Mostly Cloudy